Regional Weather Roundup
Issued by NWS

Home | Current Version | Previous Version | Graphics & Text | Print | Product List | Glossary Off
Versions: 1 2 3 4 5 6 7 8 9 10 11 12 13 14 15 16 17 18 19 20 21 22 23 24 25 26 27 28 29 30 31 32 33 34 35 36 37 38 39 40 41 42 43 44 45 46 47 48 49 50

000
ASUS43 KTOP 042359
RWRKS

WEATHER ROUNDUP FOR KANSAS
NATIONAL WEATHER SERVICE GOODLAND KS
700 PM CDT SAT JUL 04 2015

NOTE:  "FAIR" INDICATES FEW OR NO CLOUDS BELOW 12,000 FEET WITH NO
SIGNIFICANT WEATHER AND/OR OBSTRUCTIONS TO VISIBILITY.

KSZ001>006-013>018-027>032-041>047-050100-
NORTHWEST KANSAS

CITY           SKY/WX    TMP DP  RH WIND       PRES   REMARKS
GOODLAND       SUNNY     91  59  33 S17G24    29.87F
6HR MIN TEMP:  87; 6HR MAX TEMP:  93;

HAYS           SUNNY     90  64  43 S17G28    29.88F
HILL CITY      SUNNY     93  62  35 S14G24    29.86F
6HR MIN TEMP:  87; 6HR MAX TEMP:  96; 6HR PCP: TRACE;

RUSSELL        SUNNY     88  64  44 S16       29.87F
6HR MIN TEMP:  84; 6HR MAX TEMP:  89; 6HR PCP: TRACE;

$$

KSZ061>065-074>080-084>089-050100-
SOUTHWEST KANSAS

CITY           SKY/WX    TMP DP  RH WIND       PRES   REMARKS
DODGE CITY     MOSUNNY   89  62  40 S15G22    29.89F
6HR MIN TEMP:  84; 6HR MAX TEMP:  91;

ELKHART          N/A     88  60  38 S17         N/A
GARDEN CITY    SUNNY     87  65  47 SE21      29.88F
6HR MIN TEMP:  83; 6HR MAX TEMP:  88;

GREAT BEND     SUNNY     88  64  45 S14       29.89F
LIBERAL        PTSUNNY   84  61  45 S12       29.91F
$$

KSZ066>073-081>083-090>101-050100-
SOUTHEAST KANSAS

CITY           SKY/WX    TMP DP  RH WIND       PRES   REMARKS
CHANUTE        MOSUNNY   85  66  53 E8        29.92F
6HR MIN TEMP:  82; 6HR MAX TEMP:  87;

COFFEYVILLE    MOSUNNY   87  66  49 SE5       29.90F
6HR MIN TEMP:  85; 6HR MAX TEMP:  90;

HUTCHINSON     SUNNY     89  62  40 SE12      29.89F
6HR MIN TEMP:  85; 6HR MAX TEMP:  91;

MEDICINE LODGE   N/A     92  65  40 S10G18    29.87F
NEWTON         SUNNY     86  61  42 SE12      29.94S
PARSONS        MOSUNNY   86  68  54 E3        29.92F
6HR MIN TEMP:  83; 6HR MAX TEMP:  89;

WICHITA INTL   MOSUNNY   89  63  41 SE13      29.89F
6HR MIN TEMP:  85; 6HR MAX TEMP:  91;

WICHITA JABRA  SUNNY     87  62  43 S10       29.90F
6HR MIN TEMP:  84; 6HR MAX TEMP:  89;

WINFIELD       SUNNY     88  65  46 S12       29.91F
6HR MIN TEMP:  85; 6HR MAX TEMP:  91;

$$

KSZ007>012-019>026-033>040-048>060-102>105-050100-
NORTHEAST KANSAS

CITY           SKY/WX    TMP DP  RH WIND       PRES   REMARKS
CONCORDIA      SUNNY     85  62  46 SE14      29.90F
6HR MIN TEMP:  81; 6HR MAX TEMP:  86;

EMPORIA        SUNNY     84  60  44 SE9       29.91F
6HR MIN TEMP:  83; 6HR MAX TEMP:  87;

LAWRENCE       MOSUNNY   81  65  58 SE6       29.93F
6HR MIN TEMP:  79; 6HR MAX TEMP:  83;

MANHATTAN      SUNNY     85  66  53 SE7       29.90F
6HR MIN TEMP:  83; 6HR MAX TEMP:  88;

OLATHE IND     MOSUNNY   79  62  56 SE7       29.95F
6HR MIN TEMP:  79; 6HR MAX TEMP:  83;

OLATHE EXE     MOSUNNY   78  64  61 SE7       29.95F
6HR MIN TEMP:  78; 6HR MAX TEMP:  81;

SALINA         SUNNY     90  60  36 SE16      29.88F
6HR MIN TEMP:  86; 6HR MAX TEMP:  92;

TOPEKA BILLARD MOSUNNY   82  65  56 E9        29.92F
6HR MIN TEMP:  80; 6HR MAX TEMP:  84;

TOPEKA FORBES  MOSUNNY   83  65  54 E9        29.92F
6HR MIN TEMP:  81; 6HR MAX TEMP:  85;

$$


USA.gov is the U.S. government's official web portal to all federal, state and local government web resources and services.